Погода в Харсаиме

Россия / Ямало-Ненецкий автономный округ     66°35′57″N   67°17′42″E
темп.,
°C
ветер,
м/с
пор.,
м/с
влажн.,
%
обл.,
%
осадки,
мм/ч
давл.,
гПа
погр.,
м
29 января, сб
сб2923:00−26юз3310076 0.0 101434
02:00−23юз36100100 0.0 101461
05:00−20юз4698100 0.0 101572
08:00−18юз479579 0.0 101588
11:00−19ююз3697100 0.0 101569
14:00−15ююз3791100 0.0 1016154
17:00−16ююз369397 0.0 1016105
20:00−24ююз3310083 0.0 101730
30 января, вс
вс3023:00−26ю3310084 0.0 101729
02:00−28ююз3310074 0.0 101726
05:00−28ююз33100100 0.0 101729
08:00−27ю2210093 0.0 101728
11:00−27ююз2210086 0.0 101828
14:00−25юз2310083 0.0 101842
17:00−27юз22100100 0.0 101917
20:00−23юз2210099 0.0 101936
31 января, пн
пн3123:00−21юз119972 0.1 101912
02:00−24ююв0010091 0.0 10199
05:00−24юв1110097 0.0 10199
08:00−25ююв2210092 0.0 10199
11:00−23ю1110092 0.0 101910
14:00−21ю11100100 0.0 10199
17:00−24ю1110064 0.1 10199
20:00−26ююз1110084 0.0 10209
1 февраля, вт
вт123:00−26ююз1110081 0.1 10209
02:00−27юз1110091 0.0 10209
05:00−28юз1110093 0.0 10219
08:00−28зюз1110097 0.0 10219
11:00−28юз1110096 0.1 10229
14:00−26юз2210089 0.0 102322
17:00−29юз1110085 0.1 10239
20:00−30ююз2210093 0.0 102310
2 февраля, ср
ср223:00−30ююз2210098 0.0 102411
02:00−30ююз2210099 0.0 102415
05:00−31ююз2210098 0.0 102418
08:00−31ю2210091 0.0 102412
11:00−30ю2210093 0.0 102422
14:00−28ю11100100 0.0 10239
17:00−28вюв1110099 0.0 102310
20:00−22св229988 0.1 102317